Regional Weather Roundup
Issued by NWS

Home | Current Version | Previous Version | Text Only | Print | Product List | Glossary Off
Versions: 1 2 3 4 5 6 7 8 9 10 11 12 13 14 15 16 17 18 19 20 21 22 23 24 25 26 27 28 29 30 31 32 33 34 35 36 37 38 39 40 41 42 43 44 45 46 47 48 49 50

000
ASUS45 KTFX 280119
RWRMT
MONTANA HOURLY WEATHER ROUNDUP
NATIONAL WEATHER SERVICE GREAT FALLS MT
719 PM MDT SUN JUL 27 2014

NOTE: "FAIR" INDICATES FEW OR NO CLOUDS BELOW 12000 FEET WITH NO
SIGNIFICANT WEATHER AND/OR OBSTRUCTIONS TO VISIBILITY.

* THESE STATIONS ARE NOT UNDER NWS QUALITY CONTROL. THEY DO NOT
   REPORT WEATHER SUCH AS PRECIPITATION OR FOG.

MTZ001>007-043-280200-
WEST OF THE DIVIDE
CITY           SKY/WX    TMP DP  RH WIND       PRES   REMARKS
KALISPELL      PTCLDY    84  41  22 CALM      30.15F
MISSOULA       PTCLDY    91  39  16 N17G24    30.12F
BUTTE          CLEAR     84  25  11 CALM      30.27S
MULLAN PASS    PTCLDY    72  34  25 CALM      30.35F
* ESSEX        N/A       76  39  26 W2         N/A
* LINCOLN      N/A       88  29  12 N3G9       N/A
* LOOKOUT PASS N/A       79  38  23 W1         N/A
* POLSON       N/A       86  39  19 NE2G7      N/A
* RONAN APT    PTCLDY    88  48  25 N5         N/A
* SEELEY LAKE  N/A       88  33  14 NW5G13     N/A
* THOMP F APT  PTCLDY    86  21   9 E6G11      N/A
* YAAK HILL    N/A       91  41  17 NW1        N/A
$$

MTZ008-052>055-280200-
SOUTHWEST MONTANA
CITY           SKY/WX    TMP DP  RH WIND       PRES   REMARKS
BOZEMAN        CLEAR     90  25   9 CALM      30.21F
DILLON         CLEAR     88  37  16 NE10      30.22F
W YELLOWSTONE  CLEAR     81  23  12 NW5       30.33F
* THREE FORKS  CLEAR     90  39  17 N/A        N/A
* BOULDER HILL N/A       80  39  23 N8         N/A
* MONIDA PASS  N/A       84  26  12 VRB6       N/A
* RAYNOLDS PAS N/A       85  44  24 N/A        N/A
* WHITEHALL    N/A       92  30  11 E5         N/A
* WISE RIVER   N/A       88  22   9 W6G12      N/A
$$

MTZ009>010-012-014-046-048-049-054-280200-
EAST SLOPES AND CENTRAL MONTANA
CITY           SKY/WX    TMP DP  RH WIND       PRES   REMARKS
CUT BANK       CLEAR     82  39  22 SE7       30.22F
GREAT FALLS    CLEAR     88  34  15 NE9       30.18F
HELENA         CLEAR     91  34  13 E8        30.16F
MALMSTROM AFB  CLEAR     86  32  14 NE6       30.19F
* CONRAD       CLEAR     81  45  28 NE5        N/A
* DEARBORN     N/A       87  37  17 NE13G21    N/A
* EAST GLACIER N/A       79  33  19 W8         N/A
* MONARCH      N/A       80  35  20 NE8G14     N/A
* ROGERS PASS  N/A       72  40  31 W2         N/A
* SAINT MARY   N/A       83  35  18 W5         N/A
* SWEET GRASS  N/A       84  36  18 S11        N/A
* WHITE SULPH  N/A       85  27  12 S3G10      N/A
$$

MTZ011-013-016-021-035-040-045-047-050-051-280200-
NORTH CENTRAL MONTANA
CITY           SKY/WX    TMP DP  RH WIND       PRES   REMARKS
HAVRE          CLEAR     84  43  24 NE12      30.19F
LEWISTOWN      CLEAR     84  37  19 E6        30.24F
* FORT BENTON  CLEAR     88  37  16 NE9       30.17S
* CHESTER      N/A       85  34  16 SE3G9      N/A
* DENTON       N/A       86  38  18 NE8G14     N/A
* GEYSER       N/A       84  40  21 E8         N/A
* JUDITH GAP   N/A       82  39  22 S6         N/A
* LOMA         N/A       87  39  18 NE11       N/A
$$

MTZ017>020-022>027-061-062-280200-
NORTHEAST MONTANA
CITY           SKY/WX    TMP DP  RH WIND       PRES   REMARKS
GLASGOW        CLEAR     82  45  27 N10       30.22S
GLENDIVE       FAIR      77  50  39 E7        30.26S
JORDAN         CLEAR     82  41  23 NE10      30.23S
SIDNEY         CLEAR     73  52  48 NE8       30.27S
WOLF POINT     PTCLDY    81  52  37 NE8       30.23S
* BEAVER HILL  N/A       74  52  46 E8         N/A
* CIRCLE       N/A       80  50  35 N2         N/A
* LINDSAY DVD  N/A       75  49  40 E2G8       N/A
* NAVAJO       N/A       72  55  55 E6         N/A
$$

MTZ028>042-056>058-280200-
SOUTHCENTRAL AND SOUTHEAST MONTANA
CITY           SKY/WX    TMP DP  RH WIND       PRES   REMARKS
BAKER          CLEAR     75  52  45 NE12      30.28S
BILLINGS       FAIR      84  43  24 NE17      30.23S
LIVINGSTON     CLEAR     88  34  15 E8        30.23S
MILES CITY     CLEAR     82  45  27 NE9       30.22F
* LAUREL APT   CLEAR     84  43  24 NE10       N/A
* ROUNDUP APT  PTCLDY    84  37  19 E8         N/A
* ALZADA       N/A       80  41  25 NW4G9      N/A
* HYSHAM       N/A       84  42  23 E2G7       N/A
* LAME DEER    N/A       77  41  28 NE12       N/A
* REED POINT   N/A       87  44  22 E9G15      N/A
* ROSCOE HILL  N/A       80  37  21 E9         N/A
$$

REGIONAL REPORTS...DAKOTAS
CITY           SKY/WX    TMP DP  RH WIND       PRES   REMARKS
WILLISTON      CLEAR     72  52  49 E13       30.28S
DICKINSON      CLEAR     70  52  53 NE9       30.27F
CROSBY         CLEAR     66  57  73 CALM      30.28F
TIOGA          FAIR      64  57  78 NE5       30.32S
WATFORD CITY   CLEAR     68  52  57 NE6       30.27R
BISMARCK       PTCLDY    66  52  61 N10       30.27S
GRAND FORKS    MOCLDY    66  57  73 N7        30.18R
FARGO          CLOUDY    66  57  73 N13       30.17S
BUFFALO SD     CLEAR     73  54  51 NE16      30.22S
RAPID CITY     CLEAR     75  52  45 E9        30.26S
$$

REGIONAL REPORTS...WYOMING/IDAHO/WASHINGTON
CITY           SKY/WX    TMP DP  RH WIND       PRES   REMARKS
GILLETTE       CLEAR     81  41  24 NE12      30.29R
SHERIDAN       CLEAR     84  43  24 NE5       30.25S
YELLOWSTONE LA CLEAR     73  37  27 CALM      30.46F
SALMON         PTCLDY    91  39  16 CALM      30.06F
MULLAN PASS    PTCLDY    72  34  25 CALM      30.35S
SAND POINT     CLOUDY    86  45  24 CALM      30.10F
SPOKANE        CLOUDY    90  30  12 NE7       30.09F
$$

REGIONAL REPORTS...ALBERTA
CITY           SKY/WX    TMP DP  RH WIND       PRES   REMARKS
CALGARY        FAIR      77  45  32 SE10G17   30.21F
LETHBRIDGE     FAIR      77  55  47 NE9       30.19F
MEDICINE HAT   FAIR      82  48  31 E3        30.19F
EDMONTON       FAIR      75  55  50 S6        30.19S
WATERTON GATE  N/A       75  52  45 E10        N/A
CARDSTON       N/A       77  55  47 NE9        N/A
MILK RIVER     N/A       82  37  20 SE5        N/A
$$

REGIONAL REPORTS...SASKATCHEWAN
CITY           SKY/WX    TMP DP  RH WIND       PRES   REMARKS
SWIFT CURRENT  CLEAR     72  55  55 N9        30.24F
REGINA         MOCLDY    68  57  68 E7        30.27F
VAL MARIE      N/A       75  52  45 NE3        N/A
ASSINIBOIA     N/A       72  55  55 E3         N/A
CORONACH       N/A       72  54  53 E2         N/A

$$




USA.gov is the U.S. government's official web portal to all federal, state and local government web resources and services.